Location: Parc National du Mont-Orford
(45.3122°N, 72.2403°W)
Time: 02:52:18
(UTC-05:00)

Amateur Radio Satellites - All Passes

Search period start: 22 January 2018 02:22
Search period end: 23 January 2018 02:22
Location: Parc National du Mont-Orford, 45.3122°N, 72.2403°W

Satellite Date Start Highest point End Downlink Frequencies (MHz)
Time Altitude Azimuth
AO-7 22 Jan 02:22:25 02:29:29 29° 94° (E) 02:36:29 .
nSIGHT-1 22 Jan 02:23:12 02:26:07 34° 219° (SW) 02:29:02 .
MOZHAYETS 4 22 Jan 02:26:10 02:30:44 59° 259° (W) 02:35:21
CUBESAT XI-V 22 Jan 02:32:26 02:36:52 43° 70° (ENE) 02:41:18 437.345
ISS 22 Jan 02:41:08 02:44:10 35° 218° (SW) 02:47:11 437.550
BEESAT 22 Jan 02:44:58 02:49:41 65° 258° (WSW) 02:54:28 436.000
AO-91 22 Jan 03:07:19 03:08:57 12° 299° (WNW) 03:10:38 145.960
ITAMSAT 1 22 Jan 03:09:49 03:14:34 35° 97° (E) 03:19:17 435.822/435.867
Gurwin Techsat 1B 22 Jan 03:37:36 03:40:19 14° 304° (NW) 03:43:01 435.225
ITUPSAT 1 22 Jan 03:45:35 03:48:56 19° 268° (W) 03:52:18 437.325
KKS-1 22 Jan 03:46:37 03:50:43 39° 69° (ENE) 03:54:52 437.445
STARS 22 Jan 03:59:46 04:03:10 23° 64° (ENE) 04:06:35 437.465
CUBESAT XI-V 22 Jan 04:10:47 04:14:25 22° 267° (W) 04:18:03 437.345
AO-7 22 Jan 04:14:32 04:22:50 69° 294° (WNW) 04:31:05 .
FALCONSAT 3 22 Jan 04:15:33 04:17:48 15° 171° (S) 04:20:02 435.103
DOVE 4 22 Jan 04:21:33 04:25:47 47° 100° (E) 04:30:12 437.250
XW-2F 22 Jan 04:48:40 04:49:14 10° 89° (E) 04:49:47 145.980 - 146.000
ITAMSAT 1 22 Jan 04:49:20 04:53:58 34° 295° (WNW) 04:58:36 435.822/435.867
CUTE-I 22 Jan 04:53:15 04:56:04 14° 89° (E) 04:58:54 437.470
XW-2D 22 Jan 04:57:57 05:00:15 15° 91° (E) 05:02:33 145.860 - 145.880
FO-29 22 Jan 05:06:05 05:08:34 13° 55° (NE) 05:10:59 435.910
SO-50 22 Jan 05:09:49 05:14:17 83° 124° (SE) 05:18:50 436.795
RS-15 22 Jan 05:13:28 05:15:23 10° 90° (E) 05:17:18 29.354- 29.394
M-CUBED/EXP-1 PRIME 22 Jan 05:14:29 05:17:50 75° 292° (WNW) 05:21:05 437.505
XW-2B 22 Jan 05:15:01 05:18:04 23° 94° (E) 05:21:05 145.730 - 145.750
KKS-1 22 Jan 05:24:00 05:27:25 22° 266° (W) 05:30:51 437.445
STARS 22 Jan 05:35:13 05:39:17 38° 262° (W) 05:43:23 437.465
CUBEBUG 2 22 Jan 05:39:56 05:41:08 11° 86° (E) 05:42:20 437.445
LilacSat-2 22 Jan 05:44:27 05:48:12 57° 100° (E) 05:51:54 437.200
XW-2C 22 Jan 05:44:58 05:48:40 53° 100° (E) 05:52:19 145.795 - 145.815
FALCONSAT 3 22 Jan 05:53:43 05:56:08 17° 186° (S) 05:58:34 435.103
DOVE 4 22 Jan 06:00:06 06:03:11 19° 295° (WNW) 06:06:22 437.250
STRAND 1 22 Jan 06:00:38 06:05:36 56° 71° (ENE) 06:10:36 437.568
AO-7 22 Jan 06:08:48 06:14:09 19° 316° (NW) 06:19:30 .
KAITUO 1B 22 Jan 06:15:51 06:19:33 90° 69° (ENE) 06:23:14 145.475/437.950
XW-2F 22 Jan 06:20:01 06:23:43 61° 285° (WNW) 06:27:22 145.980 - 146.000
NUDT-PHONESAT 22 Jan 06:24:20 06:28:01 76° 284° (WNW) 06:31:38 437.300
XW-2D 22 Jan 06:31:04 06:34:36 40° 289° (WNW) 06:38:06 145.860 - 145.880
CUTE-I 22 Jan 06:31:24 06:36:45 80° 286° (WNW) 06:42:04 437.470
SEEDS 22 Jan 06:32:27 06:36:10 31° 96° (E) 06:39:51 437.485
HO-68 22 Jan 06:40:33 06:47:38 59° 102° (ESE) 06:54:40 435.675
FO-29 22 Jan 06:46:08 06:52:48 67° 72° (ENE) 06:58:41 435.910
CUTE 1.7 + AOD 2 22 Jan 06:47:26 06:51:39 76° 102° (ESE) 06:55:50 437.475
XW-2B 22 Jan 06:49:01 06:52:12 27° 291° (WNW) 06:55:22 145.730 - 145.750
SO-50 22 Jan 06:52:08 06:55:20 19° 325° (NW) 06:58:36 436.795
RS-15 22 Jan 07:13:06 07:24:48 53° 112° (ESE) 07:36:21 29.354- 29.394
CUBEBUG 2 22 Jan 07:13:36 07:18:23 89° 299° (WNW) 07:23:08 437.445
UWE-3 22 Jan 07:16:05 07:20:42 56° 99° (E) 07:25:14 435.000/436.395/437.385
TIGRISAT 22 Jan 07:17:02 07:19:06 13° 59° (ENE) 07:21:11 435.000
LilacSat-2 22 Jan 07:20:21 07:21:59 12° 298° (WNW) 07:23:37 437.200
XW-2C 22 Jan 07:20:36 07:22:24 13° 297° (WNW) 07:24:11 145.795 - 145.815
UNISAT 6 22 Jan 07:31:24 07:34:34 19° 63° (ENE) 07:37:48 437.425
ZACube-1 22 Jan 07:36:40 07:41:06 48° 99° (E) 07:45:26 437.345
STRAND 1 22 Jan 07:41:29 07:45:08 20° 269° (W) 07:48:50 437.568
AO-73 22 Jan 07:42:33 07:46:58 49° 99° (E) 07:51:16 145.935
AAUSAT CUBESAT 2 22 Jan 07:44:52 07:49:00 83° 104° (ESE) 07:53:06 437.432
XW-2A 22 Jan 07:56:12 07:59:33 78° 286° (WNW) 08:02:53 145.665 - 145.685
YUBILEINY 22 Jan 08:08:12 08:15:04 25° 62° (ENE) 08:21:50 435.215
SEEDS 22 Jan 08:08:19 08:11:44 25° 293° (WNW) 08:15:07 437.485
DELFI C3 22 Jan 08:10:43 08:11:11 10° 88° (E) 08:11:40 145.870
CUTE-I 22 Jan 08:13:31 08:15:57 13° 305° (NW) 08:18:23 437.470
Oscar 11 22 Jan 08:14:11 08:18:30 65° 101° (E) 08:22:46 .
CUTE 1.7 + AOD 2 22 Jan 08:25:15 08:26:52 12° 300° (WNW) 08:28:30 437.475
HO-68 22 Jan 08:28:52 08:34:59 32° 301° (WNW) 08:41:06 435.675
Max Valier Satellite 22 Jan 08:31:09 08:32:12 11° 89° (E) 08:33:14 145.860
FO-29 22 Jan 08:33:14 08:38:13 22° 267° (W) 08:42:49 435.910
BEESAT 3 22 Jan 08:41:22 08:45:00 35° 118° (ESE) 08:48:39 437.485
EO-88 22 Jan 08:46:37 08:47:22 10° 89° (E) 08:48:07 145.990 - 145.960
TIGRISAT 22 Jan 08:50:39 08:55:06 80° 257° (WSW) 08:59:41 435.000
PRISM 22 Jan 08:51:33 08:54:57 26° 67° (ENE) 08:58:22 437.425
CUBEBUG 2 22 Jan 08:52:14 08:54:15 13° 301° (WNW) 08:56:17 437.445
UWE-3 22 Jan 08:53:30 08:56:42 19° 298° (WNW) 08:59:53 435.000/436.395/437.385
PCSat 22 Jan 09:01:52 09:07:02 49° 115° (ESE) 09:12:15 145.827
UNISAT 6 22 Jan 09:06:34 09:10:53 50° 261° (W) 09:15:21 437.425
O/OREOS (USA 219) 22 Jan 09:11:34 09:15:57 51° 62° (ENE) 09:20:19 437.305
ZACube-1 22 Jan 09:13:42 09:17:01 20° 296° (WNW) 09:20:17 437.345
AO-73 22 Jan 09:19:33 09:22:49 20° 297° (WNW) 09:26:02 145.935
AAUSAT CUBESAT 2 22 Jan 09:22:55 09:23:47 11° 300° (WNW) 09:24:40 437.432
RS-15 22 Jan 09:25:12 09:37:19 59° 317° (NW) 09:49:13 29.354- 29.394
BEESAT 2 22 Jan 09:33:03 09:36:39 33° 117° (ESE) 09:40:18 435.950
QB50P2 22 Jan 09:42:00 09:44:44 17° 63° (ENE) 09:47:31 145.880/145.840
DELFI C3 22 Jan 09:42:27 09:46:22 68° 286° (WNW) 09:50:15 145.870
Oscar 11 22 Jan 09:51:47 09:54:07 14° 299° (WNW) 09:56:26 .
LO-87 22 Jan 10:00:58 10:01:44 10° 89° (E) 10:02:29 145.935 - 145.965
Max Valier Satellite 22 Jan 10:02:43 10:06:22 56° 286° (WNW) 10:09:57 145.860
YUBILEINY 22 Jan 10:04:12 10:12:57 82° 265° (W) 10:21:37 435.215
DUCHIFAT 1 22 Jan 10:08:34 10:11:45 21° 65° (ENE) 10:14:58 145.980
EO-79 22 Jan 10:11:14 10:14:53 29° 68° (ENE) 10:18:34 145.935-145.965
AIST 2D 22 Jan 10:13:26 10:16:56 84° 258° (WSW) 10:20:28 435.315
EO-88 22 Jan 10:17:47 10:21:21 56° 286° (WNW) 10:24:53 145.990 - 145.960
AO-85 22 Jan 10:17:55 10:19:48 13° 108° (ESE) 10:21:42 145.980
BEESAT 3 22 Jan 10:19:07 10:22:34 27° 316° (NW) 10:26:02 437.485
PRISM 22 Jan 10:26:38 10:30:09 28° 264° (W) 10:33:39 437.425
ESTCUBE 1 22 Jan 10:42:21 10:46:14 28° 95° (E) 10:50:05 437.505/2401.250
PCSat 22 Jan 10:45:51 10:50:38 31° 314° (NW) 10:55:28 145.827
POLYITAN 1 22 Jan 10:46:00 10:50:12 67° 74° (ENE) 10:54:27 437.675
O/OREOS (USA 219) 22 Jan 10:51:58 10:54:57 18° 259° (W) 10:57:54 437.305
NANOSAT C BR1 22 Jan 11:00:04 11:04:17 83° 75° (ENE) 11:08:33 145.865
BUGSAT 1 22 Jan 11:03:55 11:06:53 20° 64° (ENE) 11:09:52 437.445
BEESAT 2 22 Jan 11:10:49 11:14:23 29° 316° (NW) 11:17:59 435.950
QB50P2 22 Jan 11:16:00 11:20:07 52° 260° (W) 11:24:18 145.880/145.840
LO-87 22 Jan 11:31:53 11:35:28 56° 286° (WNW) 11:39:02 145.935 - 145.965
AO-7 22 Jan 11:36:34 11:40:27 14° 38° (NE) 11:44:20 .
Gurwin Techsat 1B 22 Jan 11:40:20 11:44:45 28° 63° (ENE) 11:49:12 435.225
Oscar 19 22 Jan 11:41:12 11:45:52 35° 66° (ENE) 11:50:34 437.125/150
RS-15 22 Jan 11:42:36 11:53:03 31° 348° (NNW) 12:03:12 29.354- 29.394
DUCHIFAT 1 22 Jan 11:43:14 11:47:10 39° 262° (W) 11:51:09 145.980
EO-79 22 Jan 11:46:58 11:50:36 28° 265° (W) 11:54:16 145.935-145.965
SPROUT 22 Jan 11:55:18 11:59:21 39° 98° (E) 12:03:23 437.525
AO-85 22 Jan 11:55:32 11:59:32 67° 309° (NW) 12:03:50 145.980
SO-50 22 Jan 11:59:00 12:02:48 24° 39° (NE) 12:06:39 436.795
YUBILEINY 22 Jan 12:03:10 12:08:17 17° 285° (WNW) 12:13:24 435.215
VELOX 1 22 Jan 12:11:00 12:14:55 31° 96° (E) 12:18:50 145.980
ESTCUBE 1 22 Jan 12:19:04 12:23:01 31° 293° (WNW) 12:26:57 437.505/2401.250
POLYITAN 1 22 Jan 12:24:41 12:26:25 12° 271° (W) 12:28:11 437.675
AO-91 22 Jan 12:28:39 12:32:01 84° 258° (WSW) 12:35:35 145.960
BUGSAT 1 22 Jan 12:38:04 12:41:56 41° 262° (W) 12:45:53 437.445
ITAMSAT 1 22 Jan 12:55:13 12:56:19 11° 53° (NE) 12:57:26 435.822/435.867
Gurwin Techsat 1B 22 Jan 13:19:25 13:24:28 45° 261° (W) 13:29:34 435.225
Oscar 19 22 Jan 13:20:31 13:25:10 33° 264° (W) 13:29:52 437.125/150
AO-7 22 Jan 13:23:20 13:31:16 50° 61° (ENE) 13:39:14 .
SPROUT 22 Jan 13:31:42 13:35:00 22° 295° (WNW) 13:38:17 437.525
AO-85 22 Jan 13:38:38 13:40:51 14° 331° (NNW) 13:43:09 145.980
SO-50 22 Jan 13:38:59 13:43:38 63° 238° (WSW) 13:48:21 436.795
UKube-1 22 Jan 13:42:22 13:46:19 34° 98° (E) 13:50:13 .
VELOX 1 22 Jan 13:47:32 13:51:16 28° 294° (WNW) 13:55:01 145.980
DX 1 22 Jan 13:57:40 14:02:01 82° 104° (ESE) 14:06:22 434.975-435.025
50 SAT 22 Jan 13:58:32 14:01:40 88° 280° (W) 14:04:46 437.505
RS-15 22 Jan 13:59:18 14:10:04 36° 23° (NNE) 14:20:18 29.354- 29.394
ITUPSAT 1 22 Jan 14:06:44 14:08:14 11° 88° (E) 14:09:45 437.325
MOZHAYETS 4 22 Jan 14:19:16 14:23:13 27° 94° (E) 14:27:08
M-CUBED/EXP-1 PRIME 22 Jan 14:28:03 14:31:07 20° 60° (ENE) 14:34:03 437.505
ITAMSAT 1 22 Jan 14:29:42 14:34:48 67° 72° (ENE) 14:39:57 435.822/435.867
BEESAT 22 Jan 14:43:09 14:47:13 27° 95° (E) 14:51:15 436.000
AO-7 22 Jan 15:16:20 15:24:07 42° 261° (W) 15:32:00 .
UKube-1 22 Jan 15:18:39 15:22:10 25° 295° (WNW) 15:25:40 .
HO-68 22 Jan 15:29:03 15:31:48 13° 45° (NE) 15:34:33 435.675
DOVE 4 22 Jan 15:29:11 15:33:21 59° 73° (ENE) 15:37:26 437.250
DX 1 22 Jan 15:35:53 15:37:34 12° 301° (WNW) 15:39:14 434.975-435.025
NO-84 22 Jan 15:40:05 15:42:31 21° 133° (SE) 15:44:51 435.350 FM
ITUPSAT 1 22 Jan 15:41:51 15:46:43 87° 285° (WNW) 15:51:31 437.325
XW-2D 22 Jan 15:42:09 15:43:33 12° 62° (ENE) 15:44:56 145.860 - 145.880
MOZHAYETS 4 22 Jan 15:56:12 16:00:24 34° 292° (WNW) 16:04:32
XW-2B 22 Jan 15:58:36 16:01:04 17° 65° (ENE) 16:03:34 145.730 - 145.750
M-CUBED/EXP-1 PRIME 22 Jan 16:01:10 16:05:16 43° 255° (WSW) 16:09:07 437.505
CUBESAT XI-V 22 Jan 16:03:38 16:08:16 80° 104° (ESE) 16:12:51 437.345
PCSat 22 Jan 16:05:05 16:08:17 15° 33° (NNE) 16:11:27 145.827
ITAMSAT 1 22 Jan 16:11:28 16:14:45 17° 270° (W) 16:18:03 435.822/435.867
RS-15 22 Jan 16:12:44 16:24:38 80° 52° (NE) 16:35:50 29.354- 29.394
CUTE-I 22 Jan 16:16:24 16:20:58 30° 64° (ENE) 16:25:32 437.470
BEESAT 22 Jan 16:20:38 16:25:03 37° 293° (WNW) 16:29:26 436.000
XW-2C 22 Jan 16:27:52 16:31:21 34° 71° (ENE) 16:34:51 145.795 - 145.815
LilacSat-2 22 Jan 16:27:57 16:31:32 38° 71° (ENE) 16:35:06 437.200
CUBEBUG 2 22 Jan 16:40:04 16:41:46 12° 58° (ENE) 16:43:30 437.445
BEESAT 3 22 Jan 16:55:38 16:59:23 41° 48° (NE) 17:03:04 437.485
KAITUO 1B 22 Jan 16:57:05 17:00:45 53° 73° (ENE) 17:04:25 145.475/437.950
XW-2F 22 Jan 17:01:59 17:05:47 82° 77° (ENE) 17:09:36 145.980 - 146.000
NUDT-PHONESAT 22 Jan 17:04:32 17:08:12 61° 75° (ENE) 17:11:54 437.300
DOVE 4 22 Jan 17:09:29 17:11:26 13° 270° (W) 17:13:21 437.250
HO-68 22 Jan 17:11:05 17:17:59 54° 66° (ENE) 17:24:53 435.675
KKS-1 22 Jan 17:11:15 17:15:40 58° 101° (E) 17:20:04 437.445
XW-2D 22 Jan 17:13:24 17:17:11 65° 259° (W) 17:21:00 145.860 - 145.880
NO-84 22 Jan 17:16:36 17:19:30 42° 329° (NNW) 17:22:17 435.350 FM
ITUPSAT 1 22 Jan 17:21:47 17:23:46 13° 303° (WNW) 17:25:46 437.325
STARS 22 Jan 17:22:03 17:25:59 30° 96° (E) 17:29:53 437.465
SEEDS 22 Jan 17:25:54 17:29:30 28° 68° (ENE) 17:33:07 437.485
XW-2B 22 Jan 17:31:18 17:34:56 41° 262° (W) 17:38:34 145.730 - 145.750
CUTE 1.7 + AOD 2 22 Jan 17:41:30 17:45:44 68° 74° (ENE) 17:49:59 437.475
CUBESAT XI-V 22 Jan 17:42:47 17:44:59 13° 301° (WNW) 17:47:10 437.345
PCSat 22 Jan 17:47:24 17:52:48 62° 55° (NE) 17:58:10 145.827
BEESAT 2 22 Jan 17:48:11 17:52:01 40° 48° (NE) 17:55:46 435.950
CUTE-I 22 Jan 17:55:54 18:00:51 40° 262° (W) 18:05:52 437.470
XW-2C 22 Jan 18:02:52 18:05:37 19° 267° (W) 18:08:22 145.795 - 145.815
LilacSat-2 22 Jan 18:03:19 18:05:56 17° 268° (W) 18:08:33 437.200
STRAND 1 22 Jan 18:10:05 18:13:14 16° 90° (E) 18:16:23 437.568
CUBEBUG 2 22 Jan 18:13:13 18:17:38 87° 256° (WSW) 18:22:15 437.445
UWE-3 22 Jan 18:14:31 18:18:53 56° 73° (ENE) 18:23:24 435.000/436.395/437.385
RS-15 22 Jan 18:26:16 18:35:48 32° 256° (WSW) 18:45:01 29.354- 29.394
XW-2A 22 Jan 18:28:36 18:31:51 43° 73° (ENE) 18:35:07 145.665 - 145.685
KAITUO 1B 22 Jan 18:33:32 18:35:01 12° 270° (W) 18:36:30 145.475/437.950
BEESAT 3 22 Jan 18:33:43 18:36:38 20° 247° (WSW) 18:39:31 437.485
ZACube-1 22 Jan 18:33:52 18:38:09 47° 71° (ENE) 18:42:33 437.345
AAUSAT CUBESAT 2 22 Jan 18:36:21 18:40:27 69° 75° (ENE) 18:44:33 437.432
AO-73 22 Jan 18:39:23 18:43:41 48° 72° (ENE) 18:48:04 145.935
NUDT-PHONESAT 22 Jan 18:41:52 18:42:24 10° 271° (W) 18:42:57 437.300
AO-85 22 Jan 18:43:50 18:48:10 31° 43° (NE) 18:52:45 145.980
KKS-1 22 Jan 18:48:56 18:51:46 17° 299° (WNW) 18:54:36 437.445
NO-84 22 Jan 18:55:38 18:57:15 14° 349° (N) 18:58:51 435.350 FM
STARS 22 Jan 18:58:26 19:02:14 29° 294° (WNW) 19:06:02 437.465
HO-68 22 Jan 18:59:41 19:05:59 33° 265° (W) 19:12:19 435.675
nSIGHT-1 22 Jan 19:01:29 19:03:49 19° 137° (SE) 19:06:11 .
SEEDS 22 Jan 19:01:30 19:05:08 28° 265° (W) 19:08:46 437.485
Oscar 11 22 Jan 19:10:29 19:14:47 63° 73° (ENE) 19:19:06 .
CUTE 1.7 + AOD 2 22 Jan 19:20:22 19:22:01 12° 272° (W) 19:23:41 437.475
ISS 22 Jan 19:22:34 19:25:07 21° 137° (SE) 19:27:40 437.550
BEESAT 2 22 Jan 19:26:22 19:29:29 22° 246° (WSW) 19:32:34 435.950
PCSat 22 Jan 19:31:42 19:35:43 21° 253° (WSW) 19:39:43 145.827
FO-29 22 Jan 19:38:07 19:43:03 43° 98° (E) 19:48:03 435.910
STRAND 1 22 Jan 19:47:48 19:52:55 69° 287° (WNW) 19:58:02 437.568
UWE-3 22 Jan 19:52:55 19:55:43 16° 271° (W) 19:58:34 435.000/436.395/437.385
XW-2A 22 Jan 20:03:24 20:04:46 12° 269° (W) 20:06:08 145.665 - 145.685
ZACube-1 22 Jan 20:11:30 20:14:41 19° 269° (W) 20:17:56 437.345
AAUSAT CUBESAT 2 22 Jan 20:15:08 20:16:20 11° 272° (W) 20:17:33 437.432
AO-73 22 Jan 20:16:59 20:20:10 19° 269° (W) 20:23:24 145.935
AO-85 22 Jan 20:24:01 20:28:48 48° 241° (WSW) 20:33:49 145.980
DELFI C3 22 Jan 20:29:00 20:32:54 86° 78° (ENE) 20:36:49 145.870
NO-84 22 Jan 20:33:42 20:35:20 14° 11° (NNE) 20:36:58 435.350 FM
nSIGHT-1 22 Jan 20:36:35 20:39:43 65° 334° (NNW) 20:42:52 .
TIGRISAT 22 Jan 20:40:36 20:44:03 20° 91° (E) 20:47:28 435.000
Max Valier Satellite 22 Jan 20:42:40 20:46:24 82° 76° (ENE) 20:50:09 145.860
Oscar 11 22 Jan 20:49:11 20:51:20 13° 271° (W) 20:53:30 .
UNISAT 6 22 Jan 20:55:58 21:00:07 30° 95° (E) 21:04:14 437.425
EO-88 22 Jan 20:56:32 21:00:11 79° 76° (ENE) 21:03:51 145.990 - 145.960
ISS 22 Jan 20:58:06 21:01:20 63° 335° (NNW) 21:04:35 437.550
YUBILEINY 22 Jan 21:13:17 21:19:58 25° 79° (E) 21:26:37 435.215
FO-29 22 Jan 21:23:46 21:28:00 26° 297° (WNW) 21:32:14 435.910
STRAND 1 22 Jan 21:29:51 21:31:09 11° 306° (NW) 21:32:28 437.568
ESTCUBE 1 22 Jan 21:43:36 21:47:38 34° 68° (ENE) 21:51:43 437.505/2401.250
PRISM 22 Jan 22:05:01 22:08:39 31° 97° (E) 22:12:17 437.425
LO-87 22 Jan 22:09:05 22:12:38 74° 76° (ENE) 22:16:14 145.935 - 145.965
NO-84 22 Jan 22:10:18 22:13:02 46° 32° (NNE) 22:15:50 435.350 FM
nSIGHT-1 22 Jan 22:13:32 22:16:16 26° 354° (N) 22:19:01 .
TIGRISAT 22 Jan 22:16:26 22:20:59 49° 289° (WNW) 22:25:29 435.000
UNISAT 6 22 Jan 22:32:36 22:36:47 32° 292° (WNW) 22:40:56 437.425
ISS 22 Jan 22:35:23 22:38:14 27° 355° (N) 22:41:05 437.550
NANOSAT C BR1 22 Jan 22:44:12 22:45:40 12° 89° (E) 22:47:08 145.865
SPROUT 22 Jan 22:50:14 22:54:10 38° 70° (ENE) 22:58:09 437.525
QB50P2 22 Jan 22:59:01 23:02:21 22° 93° (E) 23:05:39 145.880/145.840
YUBILEINY 22 Jan 23:07:00 23:15:49 77° 280° (W) 23:24:40 435.215
AIST 2D 22 Jan 23:08:57 23:12:26 88° 97° (E) 23:15:53 435.315
VELOX 1 22 Jan 23:09:57 23:13:57 36° 68° (ENE) 23:17:58 145.980
ESTCUBE 1 22 Jan 23:20:39 23:24:28 27° 265° (W) 23:28:18 437.505/2401.250
DX 1 22 Jan 23:22:20 23:23:37 11° 58° (ENE) 23:24:55 434.975-435.025
DUCHIFAT 1 22 Jan 23:24:50 23:28:30 27° 95° (E) 23:32:06 145.980
O/OREOS (USA 219) 22 Jan 23:26:01 23:30:12 39° 107° (ESE) 23:34:22 437.305
EO-79 22 Jan 23:28:37 23:32:39 39° 98° (E) 23:36:39 145.935-145.965
PRISM 22 Jan 23:40:29 23:43:48 24° 294° (WNW) 23:47:06 437.425
NO-84 22 Jan 23:48:01 23:49:57 17° 229° (SW) 23:51:55 435.350 FM
nSIGHT-1 22 Jan 23:50:08 23:53:01 31° 14° (NNE) 23:55:55 .
POLYITAN 1 23 Jan 00:04:04 00:08:23 87° 280° (W) 00:12:40 437.675
ISS 23 Jan 00:12:17 00:15:18 33° 14° (NNE) 00:18:19 437.550
AO-91 23 Jan 00:15:23 00:18:36 18° 93° (E) 00:22:00 145.960
NANOSAT C BR1 23 Jan 00:17:35 00:21:51 71° 285° (WNW) 00:26:05 145.865
BUGSAT 1 23 Jan 00:17:37 00:21:04 24° 94° (E) 00:24:30 437.445
50 SAT 23 Jan 00:24:40 00:27:26 31° 71° (ENE) 00:30:13 437.505
SPROUT 23 Jan 00:26:58 00:30:11 21° 267° (W) 00:33:26 437.525
QB50P2 23 Jan 00:34:16 00:38:15 38° 290° (WNW) 00:42:12 145.880/145.840
UKube-1 23 Jan 00:38:29 00:42:27 38° 69° (ENE) 00:46:26 .
VELOX 1 23 Jan 00:46:57 00:50:28 23° 266° (W) 00:54:00 145.980
DX 1 23 Jan 00:54:47 00:59:07 88° 263° (W) 01:03:28 434.975-435.025
DUCHIFAT 1 23 Jan 01:00:23 01:04:07 30° 292° (WNW) 01:07:49 145.980
EO-79 23 Jan 01:04:53 01:08:10 22° 295° (WNW) 01:11:26 145.935-145.965
O/OREOS (USA 219) 23 Jan 01:06:00 01:09:43 25° 305° (NW) 01:13:28 437.305
YUBILEINY 23 Jan 01:08:37 01:14:18 18° 304° (WNW) 01:20:00 435.215
ITUPSAT 1 23 Jan 01:14:33 01:17:51 19° 61° (ENE) 01:21:09 437.325
MOZHAYETS 4 23 Jan 01:22:50 01:26:59 34° 68° (ENE) 01:31:11
nSIGHT-1 23 Jan 01:26:13 01:29:23 68° 213° (SSW) 01:32:32 .
AO-7 23 Jan 01:26:30 01:28:23 11° 83° (E) 01:30:16 .
Oscar 19 23 Jan 01:29:07 01:34:18 74° 103° (ESE) 01:39:26 437.125/150
Gurwin Techsat 1B 23 Jan 01:33:02 01:38:18 61° 101° (E) 01:43:34 435.225
CUBESAT XI-V 23 Jan 01:34:19 01:36:28 13° 59° (ENE) 01:38:38 437.345
POLYITAN 1 23 Jan 01:42:39 01:43:26 10° 302° (WNW) 01:44:13 437.675
ISS 23 Jan 01:48:42 01:51:57 63° 213° (SSW) 01:55:11 437.550
AO-91 23 Jan 01:50:50 01:55:14 54° 287° (WNW) 02:00:04 145.960
BEESAT 23 Jan 01:51:15 01:55:40 39° 68° (ENE) 02:00:07 436.000
BUGSAT 1 23 Jan 01:52:37 01:56:28 34° 291° (WNW) 02:00:18 437.445
50 SAT 23 Jan 01:57:45 01:59:15 13° 267° (W) 02:00:44 437.505
UKube-1 23 Jan 02:15:17 02:18:35 21° 266° (W) 02:21:55 .
